Location: Moscow
(38.8570°N, 84.2291°W)
Time: 16:34:24
(UTC+00:00)

CUTE 1.7 + AOD 2 - Visible Passes

Search period start: 14 March 2026 00:00
Search period end: 24 March 2026 00:00
Orbit: 535 x 547 km, 97.8° (Epoch: 14 March)

Date Brightness Start Highest point End Pass type
(mag) Time Alt. Az. Time Alt. Az. Time Alt. Az.
14 Mar ? 09:09:05 10° NE 09:11:56 19° E 09:12:48 18° ESE visible
14 Mar ? 10:43:04 10° NNW 10:46:27 28° WNW 10:48:20 19° WSW visible
15 Mar ? 09:02:21 10° NE 09:04:47 16° E 09:05:51 14° ESE visible
15 Mar ? 10:35:50 10° N 10:39:24 34° WNW 10:41:23 21° WSW visible
16 Mar ? 08:55:47 10° ENE 08:57:37 13° E 08:58:53 11° ESE visible
16 Mar ? 10:28:36 10° N 10:32:19 41° WNW 10:34:25 22° SW visible
17 Mar ? 08:49:43 10° E 08:50:26 10° E 08:51:09 10° ESE visible
17 Mar ? 10:21:24 10° N 10:25:13 51° WNW 10:27:26 23° SW visible
18 Mar ? 10:14:12 10° N 10:18:06 64° WNW 10:20:25 23° SSW visible
19 Mar ? 10:07:01 10° N 10:10:57 80° WNW 10:13:24 22° SSW visible
20 Mar ? 09:59:50 10° NNE 10:03:48 83° ESE 10:06:21 21° S visible
21 Mar ? 09:52:40 10° NNE 09:56:37 66° ESE 09:59:18 19° S visible
22 Mar ? 09:45:32 10° NNE 09:49:23 53° E 09:52:13 17° S visible
23 Mar ? 09:38:24 10° NNE 09:42:10 42° E 09:45:07 15° SSE visible
